Tracking 19638 objects as of 20-Apr-2019
HD Live streaming from Space Station
objects crossing your sky now

SL-16 DEB

Track SL-16 DEB now!
10-day predictions


NORAD ID: 39897
Int'l Code: 1993-016BX
Perigee: 729.1 km
Apogee: 914.7 km
Inclination: 70.9 °
Period: 101.2 minutes
Semi major axis: 7192 km
RCS: 0.0057 m2 (small)
Launch date: March 26, 1993
Source: Commonwealth of Independent States (former USSR) (CIS)
Launch site: TYURATAM MISSILE AND SPACE COMPLEX (TTMTR)

Note: This is SATELLITE DEBRIS
aabbcc
Your satellite tracking list
Your tracking list is empty




NASA's NSSDC Master Catalog

Two Line Element Set (TLE):
1 39897U 93016BX  19090.37631508  .00001446  00000-0  60783-3 0  9999
2 39897  70.9450  94.5795 0129040 237.0246 121.2788 14.23129798467914
Source of the keplerian elements: AFSPC